Surface/Precipitation History
11/21/2014 09:37  to  11/22/2014 09:37
Change End Date:
Date/Time
(MST)
Sf
Temp Chem Water Layer Surface Precipitation
Sf Sub Frz Factor Pct Depth IcePct Cond Salin Type Intens Accum Rate
11/22/2014 08:51 Wet 45.5F 36F 32F 10 0% 0.00 in 0% 4 mhos 0 None None - -
11/22/2014 08:51 Wet 45.5F 36F 32F 10 0% 0.00 in 0% 4 mhos 0 None None - -
11/22/2014 08:41 Wet 45.3F 36F 32F 30 0% 0.00 in 0% 4 mhos 0 None None - -
11/22/2014 08:41 Wet 45.3F 36F 32F 30 0% 0.00 in 0% 4 mhos 0 None None - -
11/22/2014 08:31 Wet 45.3F 36F 32F 95 0% 0.00 in 0% 13 mhos 0 None None - -
11/22/2014 08:27 Wet 45.3F 36F 32F 95 0% 0.00 in 0% 16 mhos 0 None None - -
11/22/2014 08:21 Wet 45.1F 36F 32F 95 0% 0.00 in 0% 20 mhos 0 None None - -
11/22/2014 08:12 Wet 45.3F 36F 32F 95 0% 0.00 in 0% 25 mhos 0 None None - -
11/22/2014 08:11 Wet 45.3F 36F 32F 95 0% 0.00 in 0% 26 mhos 0 None None - -
11/22/2014 08:01 Wet 45.9F 36F 32F 95 0% 0.00 in 0% 32 mhos 0 None None - -
11/22/2014 07:52 Wet 46.0F 36F 32F 95 0% 0.00 in 0% 35 mhos 0 None None - -
11/22/2014 07:51 Wet 46.0F 36F 32F 95 0% 0.00 in 0% 36 mhos 0 None None - -
11/22/2014 07:41 Wet 46.0F 36F 32F 95 0% 0.00 in 0% 37 mhos 0 Yes - - -
11/22/2014 07:41 Wet 46.4F 36F 32F 95 0% 0.00 in 0% 38 mhos 0 None None - -
11/22/2014 07:30 Wet 46.4F 36F 32F 95 0% 0.00 in 0% 36 mhos 0 None None - -
Date/Time
(MST)
Sf
Temp Chem Water Layer Surface Precipitation
Sf Sub Frz Factor Pct Depth IcePct Cond Salin Type Intens Accum Rate
11/22/2014 07:22 Wet 46.8F 36F 32F 95 0% 0.00 in 0% 43 mhos 0 None None - -
11/22/2014 07:20 Wet 46.8F 36F 32F 95 0% 0.00 in 0% 43 mhos 0 Yes - - -
11/22/2014 07:11 Wet 47.3F 36F 32F 95 0% 0.00 in 0% 43 mhos 0 Yes - - -
11/22/2014 07:10 Wet 47.5F 36F 32F 95 0% 0.00 in 0% 39 mhos 0 Yes - - -
11/22/2014 07:00 Wet 48.0F 36F 32F 95 0% 0.00 in 0% 6 mhos 0 Yes - - -
11/22/2014 06:50 Wet 49.5F 36F 32F 55 0% 0.40 in 0% 0 mhos 0 None None - -
11/22/2014 06:47 Wet 49.3F 36F 32F 20 0% 0.20 in 0% 0 mhos 0 None None - -
11/22/2014 06:40 Wet 49.1F 36F 32F 20 0% 0.20 in 0% 0 mhos 0 None None - -
11/22/2014 06:30 Wet 48.4F 36F 32F 20 0% 0.20 in 0% 0 mhos 0 None None - -
11/22/2014 06:20 Wet 48.2F 36F 32F 20 0% 0.20 in 0% 0 mhos 0 None None - -
11/22/2014 06:17 Wet 48.4F 36F 32F 20 0% 0.20 in 0% 0 mhos 0 None None - -
11/22/2014 06:10 Wet 48.4F 36F 32F 20 0% 0.20 in 0% 0 mhos 0 None None - -
11/22/2014 06:00 Wet 48.4F 36F 32F 20 0% 0.20 in 0% 0 mhos 0 None None - -
11/22/2014 05:52 Wet 48.4F 36F 32F 15 0% 0.20 in 0% 0 mhos 0 None None - -
11/22/2014 05:50 Wet 48.6F 36F 32F 15 0% 0.30 in 0% 0 mhos 0 None None - -
Date/Time
(MST)
Sf
Temp Chem Water Layer Surface Precipitation
Sf Sub Frz Factor Pct Depth IcePct Cond Salin Type Intens Accum Rate
11/22/2014 05:41 Wet 49.1F 36F 32F 15 0% 0.30 in 0% 0 mhos 0 None None - -
11/22/2014 05:40 Wet 49.1F 36F 32F 15 0% 0.40 in 0% 0 mhos 0 None None - -
11/22/2014 05:30 Wet 49.5F 36F 32F 10 0% 0.40 in 0% 0 mhos 0 None None - -
11/22/2014 05:22 Wet 49.6F 36F 32F 10 0% 0.40 in 0% 0 mhos 0 None None - -
11/22/2014 05:20 Wet 49.3F 36F 32F 10 0% 0.50 in 0% 0 mhos 0 None None - -
11/22/2014 05:14 Wet 49.3F 36F 32F 10 0% 0.60 in 0% 0 mhos 0 None None - -
11/22/2014 05:10 Wet 49.1F 36F 32F 10 0% 0.60 in 0% 0 mhos 0 None None - -
11/22/2014 05:00 Wet 49.1F 36F 32F 10 0% 0.80 in 0% 0 mhos 0 None None - -
11/22/2014 04:56 Wet 48.9F 36F 32F 10 0% 0.80 in 0% 0 mhos 0 None None - -
11/22/2014 04:50 Wet 49.1F 36F 32F 10 0% 0.30 in 0% 0 mhos 0 None None - -
11/22/2014 04:44 Wet 49.1F 36F 32F 10 0% 1.10 in 0% 0 mhos 0 None None - -
11/22/2014 04:40 Wet 48.7F 36F 32F 5 0% 1.40 in 0% 0 mhos 0 Yes - - -
11/22/2014 04:29 Wet 49.3F 36F 32F 5 0% 1.70 in 0% 0 mhos 0 None None - -
11/22/2014 04:26 Wet 49.3F 36F 32F 5 0% 1.30 in 0% 0 mhos 0 None None - -
11/22/2014 04:19 Wet 49.5F 36F 32F 5 0% 0.50 in 0% 0 mhos 0 None None - -
Date/Time
(MST)
Sf
Temp Chem Water Layer Surface Precipitation
Sf Sub Frz Factor Pct Depth IcePct Cond Salin Type Intens Accum Rate
11/22/2014 04:11 Wet 49.1F 36F 32F 40 0% 0.10 in 0% 0 mhos 0 Yes - - -
11/22/2014 04:09 Wet 49.3F 36F 32F 25 0% 0.70 in 0% 0 mhos 0 Yes - - -
11/22/2014 03:59 Wet 49.1F 36F 32F 5 0% 0.80 in 0% 0 mhos 0 None None - -
11/22/2014 03:52 Wet 48.7F 36F 32F 5 0% 0.70 in 0% 0 mhos 0 None None - -
11/22/2014 03:49 Wet 48.4F 36F 32F 5 0% 0.70 in 0% 0 mhos 0 None None - -
11/22/2014 03:42 Wet 47.8F 36F 32F 5 0% 0.70 in 0% 0 mhos 0 None None - -
11/22/2014 03:39 Wet 47.8F 36F 32F 5 0% 0.70 in 0% 0 mhos 0 None None - -
11/22/2014 03:29 Wet 47.8F 36F 32F 5 0% 0.90 in 0% 0 mhos 0 None None - -
11/22/2014 03:25 Wet 47.5F 36F 32F 5 0% 1.10 in 0% 0 mhos 0 None None - -
11/22/2014 03:19 Wet 47.7F 36F 32F 5 0% 1.30 in 0% 0 mhos 0 None None - -
11/22/2014 03:11 Wet 48.0F 36F 32F 5 0% 1.30 in 0% 0 mhos 0 None None - -
11/22/2014 03:09 Wet 48.0F 36F 32F 5 0% 1.30 in 0% 0 mhos 0 None None - -
11/22/2014 02:59 Wet 47.7F 36F 32F 5 0% 1.70 in 0% 0 mhos 0 None None - -
11/22/2014 02:49 Wet 48.2F 36F 32F 5 0% 1.50 in 0% 0 mhos 0 None None - -
11/22/2014 02:44 Wet 48.0F 36F 32F 5 0% 1.20 in 0% 0 mhos 0 None None - -
Date/Time
(MST)
Sf
Temp Chem Water Layer Surface Precipitation
Sf Sub Frz Factor Pct Depth IcePct Cond Salin Type Intens Accum Rate
11/22/2014 02:39 Wet 47.8F 36F 32F 5 0% 0.90 in 0% 0 mhos 0 None None - -
11/22/2014 02:29 Wet 47.8F 36F 32F 15 0% 0.60 in 0% 0 mhos 0 Yes - - -
11/22/2014 02:19 Trace Moisture 48.4F 36F - 5 - - - 0 mhos 0 None None - -
11/22/2014 02:16 Trace Moisture 48.2F 36F - 5 - - - 0 mhos 0 None None - -
11/22/2014 02:09 Trace Moisture 47.8F 36F - 5 - - - 0 mhos 0 None None - -
11/22/2014 02:00 Trace Moisture 48.0F 36F - 5 - - - 0 mhos 0 None None - -
11/22/2014 01:59 Trace Moisture 48.2F 36F - 5 - - - 0 mhos 0 None None - -
11/22/2014 01:49 Trace Moisture 48.2F 36F - 5 - - - 0 mhos 0 None None - -
11/22/2014 01:42 Trace Moisture 48.4F 36F - 5 - - - 0 mhos 0 None None - -
11/22/2014 01:39 Trace Moisture 48.4F 36F - 5 - - - 0 mhos 0 None None - -
11/22/2014 01:28 Trace Moisture 48.6F 36F - 5 - - - 0 mhos 0 None None - -
11/22/2014 01:23 Trace Moisture 48.7F 36F - 5 - - - 0 mhos 0 None None - -
11/22/2014 01:18 Trace Moisture 48.7F 36F - 5 - - - 0 mhos 0 None None - -
11/22/2014 01:12 Trace Moisture 48.7F 36F - 5 - - - 0 mhos 0 None None - -
11/22/2014 01:08 Trace Moisture 48.7F 36F - 5 - - - 0 mhos 0 None None - -
Date/Time
(MST)
Sf
Temp Chem Water Layer Surface Precipitation
Sf Sub Frz Factor Pct Depth IcePct Cond Salin Type Intens Accum Rate
11/22/2014 00:58 Trace Moisture 48.7F 36F - 5 - - - 0 mhos 0 None None - -
11/22/2014 00:55 Trace Moisture 48.9F 36F - 5 - - - 0 mhos 0 None None - -
11/22/2014 00:48 Trace Moisture 49.1F 36F - 5 - - - 0 mhos 0 None None - -
11/22/2014 00:41 Trace Moisture 49.5F 36F - 5 - - - 0 mhos 0 None None - -
11/22/2014 00:38 Trace Moisture 49.5F 36F - 5 - - - 0 mhos 0 None None - -
11/22/2014 00:28 Trace Moisture 49.5F 36F - 5 - - - 0 mhos 0 None None - -
11/22/2014 00:22 Trace Moisture 49.5F 36F - 5 - - - 0 mhos 0 None None - -
11/22/2014 00:18 Trace Moisture 49.3F 36F - 5 - - - 0 mhos 0 None None - -
11/22/2014 00:08 Trace Moisture 49.5F 36F - 5 - - - 0 mhos 0 None None - -
11/21/2014 23:58 Trace Moisture 49.6F 36F - 5 - - - 0 mhos 0 None None - -
11/21/2014 23:48 Trace Moisture 49.8F 36F - 5 - - - 0 mhos 0 None None - -
11/21/2014 23:42 Trace Moisture 49.5F 36F - 5 - - - 0 mhos 0 None None - -
11/21/2014 23:38 Trace Moisture 49.6F 36F - 5 - - - 0 mhos 0 None None - -
11/21/2014 23:28 Trace Moisture 49.6F 36F - 5 - - - 0 mhos 0 None None - -
11/21/2014 23:22 Trace Moisture 49.6F 36F - 5 - - - 0 mhos 0 None None - -
Date/Time
(MST)
Sf
Temp Chem Water Layer Surface Precipitation
Sf Sub Frz Factor Pct Depth IcePct Cond Salin Type Intens Accum Rate
11/21/2014 23:18 Trace Moisture 49.6F 36F - 5 - - - 0 mhos 0 None None - -
11/21/2014 23:13 Trace Moisture 49.5F 36F - 5 - - - 0 mhos 0 None None - -
11/21/2014 23:08 Trace Moisture 49.5F 36F - 5 - - - 0 mhos 0 None None - -
11/21/2014 22:58 Trace Moisture 49.6F 36F - 5 - - - 0 mhos 0 None None - -
11/21/2014 22:48 Trace Moisture 49.8F 36F - 5 - - - 0 mhos 0 None None - -
11/21/2014 22:43 Trace Moisture 49.3F 36F - 5 - - - 0 mhos 0 None None - -
11/21/2014 22:37 Trace Moisture 49.1F 36F - 5 - - - 0 mhos 0 None None - -
11/21/2014 22:27 Trace Moisture 48.6F 36F - 5 - - - 0 mhos 0 None None - -
11/21/2014 22:17 Trace Moisture 48.7F 36F - 5 - - - 0 mhos 0 None None - -
11/21/2014 22:07 Trace Moisture 48.9F 36F - 5 - - - 0 mhos 0 None None - -
11/21/2014 21:57 Trace Moisture 48.7F 36F - 5 - - - 0 mhos 0 None None - -
11/21/2014 21:48 Trace Moisture 48.6F 36F - 5 - - - 0 mhos 0 None None - -
11/21/2014 21:47 Trace Moisture 48.6F 36F - 5 - - - 0 mhos 0 None None - -
11/21/2014 21:37 Trace Moisture 48.2F 36F - 5 - - - 0 mhos 0 None None - -
11/21/2014 21:27 Trace Moisture 48.0F 36F - 5 - - - 0 mhos 0 None None - -
Date/Time
(MST)
Sf
Temp Chem Water Layer Surface Precipitation
Sf Sub Frz Factor Pct Depth IcePct Cond Salin Type Intens Accum Rate
11/21/2014 21:17 Trace Moisture 47.8F 36F - 5 - - - 0 mhos 0 None None - -
11/21/2014 21:17 Trace Moisture 47.8F 36F - 5 - - - 0 mhos 0 None None - -
11/21/2014 21:07 Trace Moisture 47.8F 36F - 5 - - - 0 mhos 0 None None - -
11/21/2014 20:57 Trace Moisture 47.8F 36F - 5 - - - 0 mhos 0 None None - -
11/21/2014 20:47 Trace Moisture 48.0F 36F - 5 - - - 0 mhos 0 None None - -
11/21/2014 20:37 Trace Moisture 48.6F 36F - 5 - - - 0 mhos 0 None None - -
11/21/2014 20:27 Trace Moisture 48.7F 36F - 5 - - - 0 mhos 0 None None - -
11/21/2014 20:20 Trace Moisture 48.9F 36F - 5 - - - 0 mhos 0 None None - -
11/21/2014 20:17 Trace Moisture 48.9F 36F - 5 - - - 0 mhos 0 None None - -
11/21/2014 20:07 Trace Moisture 48.9F 36F - 5 - - - 0 mhos 0 None None - -
11/21/2014 19:57 Trace Moisture 49.1F 36F - 5 - - - 0 mhos 0 None None - -
11/21/2014 19:47 Trace Moisture 49.1F 36F - 5 - - - 0 mhos 0 None None - -
11/21/2014 19:37 Trace Moisture 49.1F 36F - 5 - - - 0 mhos 0 None None - -
11/21/2014 19:26 Trace Moisture 49.1F 36F - 5 - - - 0 mhos 0 None None - -
11/21/2014 19:16 Trace Moisture 49.1F 36F - 5 - - - 0 mhos 0 None None - -
Date/Time
(MST)
Sf
Temp Chem Water Layer Surface Precipitation
Sf Sub Frz Factor Pct Depth IcePct Cond Salin Type Intens Accum Rate
11/21/2014 19:16 Trace Moisture 49.1F 36F - 5 - - - 0 mhos 0 None None - -
11/21/2014 19:06 Trace Moisture 49.5F 36F - 5 - - - 0 mhos 0 None None - -
11/21/2014 18:56 Trace Moisture 49.8F 36F - 5 - - - 0 mhos 0 None None - -
11/21/2014 18:53 Trace Moisture 49.6F 36F - 5 - - - 0 mhos 0 None None - -
11/21/2014 18:46 Trace Moisture 49.6F 36F - 5 - - - 0 mhos 0 None None - -
11/21/2014 18:42 Trace Moisture 49.6F 36F - 5 - - - 0 mhos 0 None None - -
11/21/2014 18:36 Trace Moisture 49.6F 36F - 5 - - - 0 mhos 0 None None - -
11/21/2014 18:26 Trace Moisture 49.8F 36F - 5 - - - 0 mhos 0 None None - -
11/21/2014 18:16 Trace Moisture 50.0F 36F - 5 - - - 0 mhos 0 None None - -
11/21/2014 18:14 Trace Moisture 49.8F 36F - 5 - - - 0 mhos 0 None None - -
11/21/2014 18:06 Trace Moisture 49.8F 36F - 5 - - - 0 mhos 0 None None - -
11/21/2014 17:56 Trace Moisture 49.8F 36F - 5 - - - 0 mhos 0 None None - -
11/21/2014 17:48 Trace Moisture 49.8F 36F - 5 - - - 0 mhos 0 None None - -
11/21/2014 17:46 Trace Moisture 50.0F 36F - 5 - - - 0 mhos 0 None None - -
11/21/2014 17:36 Trace Moisture 49.8F 36F - 5 - - - 0 mhos 0 None None - -
Date/Time
(MST)
Sf
Temp Chem Water Layer Surface Precipitation
Sf Sub Frz Factor Pct Depth IcePct Cond Salin Type Intens Accum Rate
11/21/2014 17:26 Trace Moisture 49.6F 36F - 5 - - - 0 mhos 0 None None - -
11/21/2014 17:18 Trace Moisture 49.6F 36F - 5 - - - 0 mhos 0 None None - -
11/21/2014 17:16 Trace Moisture 49.6F 36F - 5 - - - 0 mhos 0 None None - -
11/21/2014 17:06 Trace Moisture 50.2F 36F - 5 - - - 0 mhos 0 None None - -
11/21/2014 16:56 Trace Moisture 50.2F 36F - 5 - - - 0 mhos 0 None None - -
11/21/2014 16:46 Trace Moisture 50.4F 36F - 5 - - - 0 mhos 0 None None - -
11/21/2014 16:42 Trace Moisture 50.4F 36F - 5 - - - 0 mhos 0 None None - -
11/21/2014 16:36 Trace Moisture 50.4F 36F - 5 - - - 0 mhos 0 None None - -
11/21/2014 16:25 Trace Moisture 50.5F 36F - 5 - - - 0 mhos 0 None None - -
11/21/2014 16:15 Trace Moisture 50.7F 36F - 5 - - - 0 mhos 0 None None - -
11/21/2014 16:14 Trace Moisture 50.9F 36F - 5 - - - 0 mhos 0 None None - -
11/21/2014 16:05 Trace Moisture 50.7F 36F - 5 - - - 0 mhos 0 None None - -
11/21/2014 15:55 Trace Moisture 50.9F 36F - 5 - - - 0 mhos 0 None None - -
11/21/2014 15:45 Trace Moisture 51.3F 36F - 5 - - - 0 mhos 0 None None - -
11/21/2014 15:45 Trace Moisture 51.6F 36F - 5 - - - 0 mhos 0 None None - -
Date/Time
(MST)
Sf
Temp Chem Water Layer Surface Precipitation
Sf Sub Frz Factor Pct Depth IcePct Cond Salin Type Intens Accum Rate
11/21/2014 15:35 Trace Moisture 52.0F 36F - 5 - - - 0 mhos 0 None None - -
11/21/2014 15:25 Trace Moisture 52.2F 36F - 5 - - - 0 mhos 0 None None - -
11/21/2014 15:15 Trace Moisture 52.7F 36F - 5 - - - 0 mhos 0 None None - -
11/21/2014 15:15 Trace Moisture 52.7F 36F - 5 - - - 0 mhos 0 None None - -
11/21/2014 15:05 Trace Moisture 53.1F 36F - 5 - - - 0 mhos 0 None None - -
11/21/2014 14:56 Trace Moisture 52.9F 36F - 5 - - - 0 mhos 0 None None - -
11/21/2014 14:55 Trace Moisture 52.9F 36F - 5 - - - 0 mhos 0 None None - -
11/21/2014 14:45 Trace Moisture 53.8F 36F - 5 - - - 0 mhos 0 None None - -
11/21/2014 14:41 Trace Moisture 54.0F 36F - 5 - - - 0 mhos 0 None None - -
11/21/2014 14:35 Trace Moisture 54.5F 36F - 5 - - - 0 mhos 0 None None - -
11/21/2014 14:25 Trace Moisture 53.6F 36F - 5 - - - 0 mhos 0 None None - -
11/21/2014 14:24 Trace Moisture 53.6F 36F - 5 - - - 0 mhos 0 None None - -
11/21/2014 14:15 Trace Moisture 52.9F 36F - 5 - - - 0 mhos 0 None None - -
11/21/2014 14:12 Trace Moisture 53.1F 36F - 5 - - - 0 mhos 0 None None - -
11/21/2014 14:05 Trace Moisture 53.4F 36F - 5 - - - 0 mhos 0 None None - -
Date/Time
(MST)
Sf
Temp Chem Water Layer Surface Precipitation
Sf Sub Frz Factor Pct Depth IcePct Cond Salin Type Intens Accum Rate
11/21/2014 13:55 Trace Moisture 53.1F 36F - 5 - - - 0 mhos 0 None None - -
11/21/2014 13:52 Trace Moisture 53.2F 36F - 5 - - - 0 mhos 0 None None - -
11/21/2014 13:45 Trace Moisture 53.2F 36F - 5 - - - 0 mhos 0 None None - -
11/21/2014 13:41 Trace Moisture 53.1F 36F - 5 - - - 0 mhos 0 None None - -
11/21/2014 13:35 Trace Moisture 53.1F 36F - 5 - - - 0 mhos 0 None None - -
11/21/2014 13:25 Trace Moisture 53.1F 36F - 5 - - - 0 mhos 0 None None - -
11/21/2014 13:16 Trace Moisture 53.1F 36F - 5 - - - 0 mhos 0 None None - -
11/21/2014 13:14 Trace Moisture 53.2F 36F - 5 - - - 0 mhos 0 None None - -
11/21/2014 13:04 Trace Moisture 51.8F 36F - 5 - - - 0 mhos 0 None None - -
11/21/2014 12:54 Trace Moisture 51.1F 36F - 5 - - - 0 mhos 0 None None - -
11/21/2014 12:44 Trace Moisture 50.9F 36F - 5 - - - 0 mhos 0 None None - -
11/21/2014 12:44 Trace Moisture 50.9F 36F - 5 - - - 0 mhos 0 None None - -
11/21/2014 12:34 Trace Moisture 49.8F 36F - 5 - - - 0 mhos 0 None None - -
11/21/2014 12:24 Trace Moisture 49.1F 36F - 5 - - - 0 mhos 0 None None - -
11/21/2014 12:22 Trace Moisture 48.9F 36F - 5 - - - 0 mhos 0 None None - -
Date/Time
(MST)
Sf
Temp Chem Water Layer Surface Precipitation
Sf Sub Frz Factor Pct Depth IcePct Cond Salin Type Intens Accum Rate
11/21/2014 12:14 Trace Moisture 47.7F 36F - 5 - - - 0 mhos 0 None None - -
11/21/2014 12:11 Trace Moisture 47.5F 36F - 5 - - - 0 mhos 0 None None - -
11/21/2014 12:04 Trace Moisture 47.1F 36F - 5 - - - 0 mhos 0 None None - -
11/21/2014 11:54 Trace Moisture 46.9F 36F - 5 - - - 0 mhos 0 None None - -
11/21/2014 11:44 Trace Moisture 46.8F 36F - 5 - - - 0 mhos 0 None None - -
11/21/2014 11:44 Trace Moisture 46.8F 36F - 5 - - - 0 mhos 0 None None - -
11/21/2014 11:34 Trace Moisture 46.8F 36F - 5 - - - 0 mhos 0 None None - -
11/21/2014 11:24 Trace Moisture 46.8F 36F - 5 - - - 0 mhos 0 None None - -
11/21/2014 11:23 Trace Moisture 46.8F 36F - 5 - - - 0 mhos 0 None None - -
11/21/2014 11:14 Trace Moisture 46.6F 36F - 5 - - - 0 mhos 0 None None - -
11/21/2014 11:11 Trace Moisture 46.4F 36F - 5 - - - 0 mhos 0 None None - -
11/21/2014 11:04 Trace Moisture 46.4F 36F - 5 - - - 0 mhos 0 None None - -
11/21/2014 10:54 Trace Moisture 46.6F 36F - 5 - - - 0 mhos 0 None None - -
11/21/2014 10:47 Trace Moisture 47.1F 36F - 5 - - - 0 mhos 0 None None - -
11/21/2014 10:44 Trace Moisture 47.1F 36F - 5 - - - 0 mhos 0 None None - -
Date/Time
(MST)
Sf
Temp Chem Water Layer Surface Precipitation
Sf Sub Frz Factor Pct Depth IcePct Cond Salin Type Intens Accum Rate
11/21/2014 10:34 Trace Moisture 46.4F 36F - 5 - - - 0 mhos 0 None None - -
11/21/2014 10:25 Trace Moisture 45.9F 36F - 5 - - - 0 mhos 0 None None - -
11/21/2014 10:24 Trace Moisture 45.9F 36F - 5 - - - 0 mhos 0 None None - -
11/21/2014 10:14 Trace Moisture 45.7F 36F - 5 - - - 0 mhos 0 None None - -
11/21/2014 10:11 Trace Moisture 45.7F 36F - 5 - - - 0 mhos 0 None None - -
11/21/2014 10:03 Trace Moisture 45.1F 36F - 5 - - - 0 mhos 0 None None - -
11/21/2014 09:53 Trace Moisture 44.6F 36F - 10 - - - 0 mhos 0 None None - -
11/21/2014 09:46 Trace Moisture 44.4F 36F - 5 - - - 0 mhos 0 None None - -
11/21/2014 09:43 Trace Moisture 44.6F 36F - 10 - - - 0 mhos 0 None None - -
Change End Date:
Copyright © 1998-2005 Surface Systems, Inc.
All Rights Reserved
Send comments about the data to:
SCAN Web ® is a registered trademark of Surface Systems, Inc.
SCAN Web Version 5.6